Location: Newark
(51.2625°N, 13.3939°E)
Time: 12:43:24
(UTC+00:00)

Explorer 7 - Pass Details

Date: 14 November 2019
Orbit: 485 x 680 km, 50.3° (Epoch: 06 December)

Event Time Altitude Azimuth Distance (km) Brightness Sun altitude
Rises 03:41:49 0° 264° (W) 2,793 - -24.8°
Reaches altitude 10° 03:44:09 10° 263° (W) 1,860 - -24.4°
Maximum altitude 03:48:22 79° 179° (S) 555 - -23.7°
Exits shadow 03:48:40 73° 127° (SE) 566 6.9 -23.7°
Drops below altitude 10° 03:52:20 10° 91° (E) 1,750 10.5 -23.1°
Sets 03:54:29 0° 91° (E) 2,612 11.8 -22.8°
